Location: Bruch
(44.2051°N, 0.4120°E)
Time: 17:44:18
(UTC+00:00)

Cosmos 1515 Rocket - Visible Passes

Search period start: 16 April 2021 00:00
Search period end: 26 April 2021 00:00
Orbit: 607 x 629 km, 82.5° (Epoch: 16 April)

Date Brightness Start Highest point End Pass type
(mag) Time Alt. Az. Time Alt. Az. Time Alt. Az.
16 Apr 5.9 00:36:13 21° NNE 00:36:13 21° NNE 00:37:46 10° N visible
17 Apr 5.8 00:53:04 22° N 00:53:04 22° N 00:54:46 10° N visible
17 Apr 6.3 23:32:46 13° NE 23:32:46 13° NE 23:33:28 10° NNE visible
18 Apr 5.9 01:09:54 19° NNW 01:09:54 19° NNW 01:11:30 10° NNW visible
18 Apr 6.0 23:49:36 19° NNE 23:49:36 19° NNE 23:50:57 10° NNE visible
19 Apr 6.1 01:26:43 14° NW 01:26:43 14° NW 01:27:53 10° NNW visible
20 Apr 5.8 00:06:25 23° N 00:06:25 23° N 00:08:09 10° N visible
21 Apr 5.7 00:23:14 24° N 00:23:14 24° N 00:25:08 10° N visible
21 Apr 6.1 23:02:54 15° NE 23:02:54 15° NE 23:03:52 10° NNE visible
22 Apr 5.8 00:40:01 20° NNW 00:40:01 20° NNW 00:41:51 10° NNW visible
22 Apr 5.8 23:19:41 21° NNE 23:19:41 21° NNE 23:21:20 10° NNE visible
23 Apr 6.1 00:56:48 15° NW 00:56:48 15° NW 00:58:12 10° NNW visible
23 Apr 5.5 23:36:28 27° N 23:36:28 27° N 23:38:31 10° N visible
24 Apr 6.2 22:16:06 11° NE 22:16:06 11° NE 22:16:17 10° NE visible
24 Apr 5.5 23:53:13 28° NNW 23:53:13 28° NNW 23:55:29 10° N visible
25 Apr 5.8 22:32:51 17° NE 22:32:51 17° NE 22:34:15 10° NNE visible
